Location: Bodest
(46.3000°N, 22.5667°E)
Time: 10:17:51
(UTC+00:00)

Okean-O - Pass Details

Date: 16 October 2021
Orbit: 639 x 640 km, 98.2° (Epoch: 08 December)

Event Time Altitude Azimuth Distance (km) Brightness Sun altitude
Exits shadow 18:07:50 26° 200° (SSW) 1,277 4.2 -25.9°
Maximum altitude 18:10:01 47° 260° (W) 856 3.5 -26.3°
Drops below altitude 10° 18:14:19 10° 335° (NNW) 2,043 5.7 -27.0°
Sets 18:16:37 0° 341° (NNW) 2,957 6.5 -27.4°
